Location: Cul de Sac
(18.0387°N, 63.0654°W)
Time: 23:23:28
(UTC+00:00)

Cosmos 1076 Rocket - Pass Details

Date: 29 October 2020
Orbit: 589 x 613 km, 82.5° (Epoch: 29 November)

Event Time Altitude Azimuth Distance (km) Brightness Sun altitude
Rises 23:25:09 0° 348° (NNW) 2,819 7.0 -25.1°
Reaches altitude 10° 23:27:23 10° 344° (NNW) 1,920 6.2 -25.6°
Maximum altitude 23:31:31 54° 267° (W) 720 4.1 -26.6°
Drops below altitude 10° 23:35:41 10° 189° (S) 1,928 6.2 -27.6°
Sets 23:37:55 0° 185° (S) 2,832 7.1 -28.1°
